Satellite-Ground Cal/Val Region Overpasses Predictions

Prediction of Satellite NPP Overpassing Cal/Val Region: PacNW

Region Location: (Latitude: 10.00, Longitude: 139.50) to (Latitude: 22.70, Longitude: 165.60).

Table of predicted overpasses for the next 14.0 days since TLE Epoch: 10/28/2014
Interval Starting Time Starting Location Ending Time Ending Location
1 10/29/2014 02:35:13 ( 10.05, 163.04) 10/29/2014 02:38:48 ( 22.67, 160.04)
2 10/29/2014 15:07:05 ( 22.65, 160.26) 10/29/2014 15:10:40 ( 10.03, 157.27)
3 10/30/2014 02:18:50 ( 19.49, 165.59) 10/30/2014 02:19:44 ( 22.66, 164.81)
4 10/30/2014 03:57:38 ( 10.05, 142.43) 10/30/2014 04:01:08 ( 22.38, 139.50)
5 10/30/2014 14:48:00 ( 22.67, 165.03) 10/30/2014 14:51:35 ( 10.05, 162.03)
6 10/30/2014 16:29:30 ( 22.65, 139.65) 10/30/2014 16:29:40 ( 22.07, 139.51)
7 10/31/2014 03:38:34 ( 10.03, 147.20) 10/31/2014 03:42:09 ( 22.66, 144.20)
8 10/31/2014 16:10:26 ( 22.67, 144.42) 10/31/2014 16:14:01 ( 10.05, 141.43)
9 11/01/2014 03:19:30 ( 10.02, 151.97) 11/01/2014 03:23:06 ( 22.70, 148.95)
10 11/01/2014 15:51:21 ( 22.69, 149.19) 11/01/2014 15:54:57 ( 10.01, 146.18)
11 11/02/2014 03:00:25 ( 10.00, 156.73) 11/02/2014 03:04:01 ( 22.69, 153.72)
12 11/02/2014 15:32:17 ( 22.70, 153.96) 11/02/2014 15:35:53 ( 10.02, 150.95)
13 11/03/2014 02:41:22 ( 10.05, 161.49) 11/03/2014 02:44:57 ( 22.67, 158.49)
14 11/03/2014 15:13:13 ( 22.65, 158.72) 11/03/2014 15:16:48 ( 10.03, 155.72)
15 11/04/2014 02:23:06 ( 12.92, 165.60) 11/04/2014 02:25:52 ( 22.66, 163.26)
16 11/04/2014 04:03:47 ( 10.05, 140.88) 11/04/2014 04:05:28 ( 15.99, 139.50)
17 11/04/2014 14:54:09 ( 22.66, 163.48) 11/04/2014 14:57:44 ( 10.04, 160.49)
18 11/05/2014 03:44:43 ( 10.04, 145.65) 11/05/2014 03:48:18 ( 22.67, 142.65)
19 11/05/2014 14:38:14 ( 11.52, 165.59) 11/05/2014 14:38:39 ( 10.05, 165.25)
20 11/05/2014 16:16:34 ( 22.66, 142.87) 11/05/2014 16:20:09 ( 10.04, 139.88)
21 11/06/2014 03:25:38 ( 10.03, 150.41) 11/06/2014 03:29:13 ( 22.66, 147.42)
22 11/06/2014 15:57:30 ( 22.67, 147.64) 11/06/2014 16:01:05 ( 10.05, 144.64)
23
